#timestamp,LO_Frequency,Hit,StdDev 
1459364415.0,286047001.3,N
1459364415.9,286047001.3,N
1459364435.8,286046998.2,N
1459364455.6,286047001.1,N
1459364475.4,286047000.3,N
1459364495.2,286046999.3,N
1459364515.1,286046999.1,N
1459364516.0,286046999.1,N
1459364535.8,286046996.6,N
1459364555.6,286046999.2,N
1459364575.5,286046995.4,N
1459364595.3,286046994.9,N
1459364615.1,286046997.6,N
1459364635.9,286046997.5,N
1459364655.7,286046996.8,N
1459364675.5,286046997.6,N
1459364695.4,286046997.8,N
1459364715.2,286046997.9,N
1459364735.0,286046996.9,N
1459364735.9,286046996.9,N
1459364755.8,286046995.6,N
1459364775.6,286046994.0,N
1459364795.4,286046994.0,N
1459364815.3,286046994.7,N
1459364835.1,286046993.5,N
1459364836.0,286046993.5,N
1459364855.8,286046996.0,N
1459364875.6,286046997.5,N
1459364895.5,286047001.2,N
1459364915.3,286047001.9,N
1459364935.1,286047005.3,N
1459364955.9,286047003.7,N
1459364975.7,286047005.1,N
1459364995.5,286047006.1,N
1459365015.4,286047008.7,N
1459365035.2,286047008.1,N
1459365055.0,286047010.1,N
1459365055.9,286047010.1,N
1459365075.8,286047010.5,N
1459365095.6,286047009.3,N
1459365115.4,286047013.4,N
1459365135.3,286047013.3,N
1459365155.1,286047013.1,N
1459365156.0,286047013.1,N
1459365175.8,286047010.9,N
1459365195.7,286047012.8,N
1459365215.5,286047012.1,N
1459365235.3,286047014.3,N
1459365255.1,286047012.5,N
1459365275.9,286047015.4,N
1459365295.7,286047015.7,N
1459365315.5,286047014.3,N
1459365335.4,286047017.1,N
1459365355.2,286047017.3,N
1459365375.0,286047019.0,N
1459365375.9,286047019.0,N
1459365395.8,286047020.2,Y
1459365415.6,286047006.6,P
1459365435.4,286047008.3,P
1459365455.3,286047008.9,P
1459365475.1,286047008.2,Y
1459365495.8,286047000.7,P
1459365515.7,286047003.1,N
1459365535.5,286047003.4,N
1459365555.3,286046999.7,N
1459365575.2,286047002.2,N
1459365595.9,286047003.8,N
1459365615.7,286047000.0,N
1459365635.6,286046999.3,N
1459365655.4,286047000.7,N
1459365675.2,286047001.0,N
1459365695.1,286046998.2,N
1459365696.0,286046998.2,N
1459365715.8,286046996.6,N
1459365735.6,286046996.9,N
1459365755.5,286046999.1,N
1459365775.3,286046995.2,N
1459365795.1,286046996.4,N
1459365815.8,286046991.7,N
1459365835.7,286046994.5,N
1459365855.5,286046992.0,N
1459365875.3,286046991.3,N
1459365895.2,286046991.5,N
1459365915.9,286046988.9,N
1459365935.7,286046988.2,N
1459365955.6,286046986.0,N
1459365975.4,286046986.0,N
1459365995.2,286046985.4,N
1459366015.1,286046988.4,N
1459366016.0,286046988.4,N
1459366035.8,286046988.1,N
1459366055.6,286046986.8,N
1459366075.5,286046982.8,N
1459366095.3,286046983.1,N
1459366115.1,286046984.9,N
1459366135.9,286046984.7,N
1459366155.7,286046981.9,Y
1459366175.5,286046987.0,P
1459366195.4,286046987.2,P
1459366215.2,286046987.0,P
1459366235.0,286046987.9,Y
1459366235.9,286046987.9,P
1459366255.8,286046996.1,P
1459366275.6,286046996.4,N
1459366295.4,286046996.0,N
1459366315.3,286046994.4,N
1459366335.1,286046993.4,N
1459366336.0,286046993.4,N
1459366355.8,286046994.2,N
1459366375.6,286046994.8,N
1459366395.5,286046991.5,N
1459366415.3,286046989.4,Y
1459366435.1,286046998.0,P
1459366455.9,286046996.0,N
1459366475.7,286046994.5,N
1459366495.6,286046992.9,Y
1459366515.4,286046997.6,P
1459366535.2,286046993.8,P
1459366555.0,286046990.2,P
1459366556.0,286046990.2,Y
1459366575.8,286046996.6,P
1459366595.6,286047000.9,N
1459366615.4,286047002.2,N
1459366635.3,286047004.3,N
1459366655.1,286047001.3,N
1459366675.8,286046998.6,N
1459366695.7,286047001.9,N
1459366715.5,286047002.3,N
1459366735.3,286047001.5,N
1459366755.2,286047004.8,N
1459366775.9,286047005.8,N
1459366795.7,286047005.7,N
1459366815.6,286047005.2,N
1459366835.4,286047005.4,N
1459366855.2,286047004.4,N
1459366875.1,286047003.2,N
1459366876.0,286047003.2,N
1459366895.8,286047004.7,N
1459366915.6,286047008.4,N
1459366935.4,286047009.2,N
1459366955.3,286047006.5,N
1459366975.1,286047006.9,N
1459366995.8,286047007.8,N
1459367015.7,286047008.9,N
1459367035.5,286047006.2,N
1459367055.3,286047009.4,N
1459367075.2,286047007.9,N
1459367095.0,286047011.4,Y
1459367095.9,286047011.4,P
1459367115.8,286047010.1,N
1459367135.6,286047013.8,P
1459367155.4,286047014.9,Y
1459367175.3,286047004.7,P
1459367195.1,286047005.9,N
1459367196.0,286047005.9,N
1459367215.8,286047003.2,N
1459367235.6,286047001.6,N
1459367255.5,286047003.4,N
1459367275.3,286047005.5,N
1459367295.1,286047005.1,N
1459367315.9,286047007.3,Y
1459367335.7,286047000.2,P
1459367355.5,286047003.4,N
1459367375.4,286047007.5,P
1459367395.2,286047008.5,Y
1459367415.0,286047005.3,P
1459367415.9,286047005.3,P
1459367435.8,286047003.2,P
1459367455.6,286047007.1,Y
1459367475.5,286046999.2,P
1459367495.3,286046999.6,N
1459367515.1,286046996.8,N
1459367535.8,286046999.3,N
1459367555.7,286047001.9,N
1459367575.5,286047001.7,N
1459367595.3,286047003.9,N
1459367615.2,286046998.1,N
1459367635.9,286046996.6,N
1459367655.7,286046994.9,N
1459367675.6,286046995.8,N
1459367695.4,286046994.7,N
1459367715.2,286046991.0,N
1459367735.1,286046991.8,N
1459367736.0,286046991.8,N
1459367755.8,286046992.9,N
1459367775.6,286046994.4,N
1459367795.5,286046992.3,N
1459367815.3,286046990.8,N
1459367835.1,286046989.8,N
1459367855.8,286046988.2,N
1459367875.7,286046989.5,N
1459367895.5,286046985.6,Y
1459367915.4,286046993.2,P
1459367935.2,286046992.7,P
1459367955.0,286046990.6,P
1459367955.9,286046990.6,Y
1459367975.8,286046997.2,P
1459367995.6,286046996.8,N
